This demonstration page uses our WeatherBlox Daily Observations layout. Learn more.

Left ArrowRight Arrow

41.12389, -100.76542

Hourly Observations for September 17, 2016

Temp ( °F °C ) Dew Point ( °F °C ) Humidity (%) Winds ( mph kmh ) Pressure ( in mb ) Visibility ( mi km ) Precip ( " mm )
12:53 am 00:53 Clear 48 8.9 44 6.7 86 86 Calm 30.06 1018 10 16 0.00 0.00
1:53 am 01:53 Clear 48 8.9 43 6.1 83 83 Calm 30.05 1018 10 16 0.00 0.00
2:53 am 02:53 Clear 44 6.7 40 4.4 85 85 NW 6 9 30.06 1018 10 16 0.00 0.00
3:53 am 03:53 Clear 44 6.7 41 5 89 89 NW 6 9 30.06 1018 10 16 0.00 0.00
4:53 am 04:53 Clear 42 5.6 39 3.9 89 89 NW 6 9 30.06 1018 10 16 0.00 0.00
5:53 am 05:53 Clear 42 5.6 39 3.9 89 89 W 6 9 30.06 1018 10 16 0.00 0.00
6:53 am 06:53 Clear 41 5 39 3.9 93 93 Calm 30.08 1019 10 16 0.00 0.00
8:53 am 08:53 Sunny 52 11.1 45 7.2 77 77 Calm 30.10 1019 10 16 0.00 0.00
9:53 am 09:53 Sunny 59 15 47 8.3 64 64 W 3 6 30.09 1019 10 16 0.00 0.00
10:53 am 10:53 Sunny 68 20 49 9.4 51 51 Calm 30.06 1018 10 16 0.00 0.00
11:53 am 11:53 Mostly Cloudy 77 25 44 6.7 31 31 SW 10 17 30.03 1017 10 16 0.00 0.00
12:53 pm 12:53 Partly Cloudy 79 26.1 43 6.1 28 28 SSW 10 17 30.01 1016 10 16 0.00 0.00
1:53 pm 13:53 Mostly Cloudy 83 28.3 44 6.7 25 25 SSW 14 22 29.98 1015 10 16 0.00 0.00
2:53 pm 14:53 Partly Cloudy 83 28.3 44 6.7 25 25 SW 12 19 29.95 1014 10 16 0.00 0.00
3:53 pm 15:53 Mostly Sunny 84 28.9 46 7.8 27 27 S 17 28 29.92 1013 10 16 0.00 0.00
4:53 pm 16:53 Sunny 79 26.1 46 7.8 31 31 S 17 28 29.92 1013 10 16 0.00 0.00
5:53 pm 17:53 Sunny 76 24.4 48 8.9 37 37 S 9 15 29.92 1013 10 16 0.00 0.00
6:53 pm 18:53 Sunny 69 20.6 47 8.3 45 45 S 8 13 29.94 1014 10 16 0.00 0.00
7:53 pm 19:53 Clear 67 19.4 46 7.8 47 47 SSE 8 13 29.95 1014 10 16 0.00 0.00
8:53 pm 20:53 Clear 64 17.8 46 7.8 52 52 S 9 15 29.94 1014 10 16 0.00 0.00
9:53 pm 21:53 Clear 57 13.9 48 8.9 72 72 ESE 5 7 29.96 1015 10 16 0.00 0.00
10:53 pm 22:53 Clear 52 11.1 47 8.3 83 83 Calm 29.97 1015 10 16 0.00 0.00
11:53 pm 23:53 Clear 49 9.4 45 7.2 86 86 Calm 29.95 1014 10 16 0.00 0.00

Powered by AerisWeather